This is the latest recevied weather packets stored in our database for station/object K9RCP-20. If no packets are shown the sender has not sent any weather packets the latest 10 day(s).
| Time | Temp. | Humidity | Pressure | Rain* | Wind** | Luminosity | Snow |
|---|---|---|---|---|---|---|---|
| 1778374022 | 27.78° C | 21% | 1012 hPa | 0 mm | - | 235 W/m² | - |
| 1778373719 | 27.78° C | 21% | 1011.9 hPa | 0 mm | - | 175 W/m² | - |
| 1778373416 | 27.78° C | 23% | 1012 hPa | 0 mm | - | 257 W/m² | - |
| 1778373111 | 27.78° C | 24% | 1012.2 hPa | 0 mm | - | 216 W/m² | - |
| 1778372806 | 26.67° C | 24% | 1012.3 hPa | 0 mm | - | 177 W/m² | - |
| 1778372503 | 27.78° C | 25% | 1012.2 hPa | 0 mm | - | 287 W/m² | - |
| 1778372200 | 28.33° C | 24% | 1012.2 hPa | 0 mm | - | 197 W/m² | - |
| 1778371899 | 27.78° C | 23% | 1012.3 hPa | 0 mm | - | 293 W/m² | - |
| 1778371598 | 26.67° C | 26% | 1012.3 hPa | 0 mm | - | 364 W/m² | - |
| 1778371296 | 26.67° C | 25% | 1012.6 hPa | 0 mm | - | 401 W/m² | - |
| 1778370992 | 26.11° C | 27% | 1012.5 hPa | 0 mm | - | 321 W/m² | - |
| 1778370689 | 26.67° C | 27% | 1012.3 hPa | 0 mm | - | 210 W/m² | - |
| 1778370385 | 27.22° C | 26% | 1012.6 hPa | 0 mm | - | 380 W/m² | - |
| 1778370083 | 26.67° C | 26% | 1012.4 hPa | 0 mm | - | 430 W/m² | - |
| 1778369780 | 27.22° C | 26% | 1012.5 hPa | 0 mm | - | 314 W/m² | - |
| 1778369477 | 26.67° C | 28% | 1012.3 hPa | 0 mm | - | 296 W/m² | - |
| 1778369173 | 28.33° C | 27% | 1012.8 hPa | 0 mm | - | 358 W/m² | - |
| 1778368871 | 27.78° C | 24% | 1012.8 hPa | 0 mm | - | 473 W/m² | - |
| 1778368567 | 27.78° C | 27% | 1012.8 hPa | 0 mm | - | 474 W/m² | - |
| 1778368265 | 27.22° C | 25% | 1012.9 hPa | 0 mm | - | 490 W/m² | - |
| 1778367961 | 27.22° C | 26% | 1012.9 hPa | 0 mm | - | 466 W/m² | - |
| 1778367659 | 26.11° C | 28% | 1012.7 hPa | 0 mm | - | 535 W/m² | - |
| 1778367354 | 26.11° C | 29% | 1013 hPa | 0 mm | - | 316 W/m² | - |
| 1778367050 | 26.67° C | 30% | 1012.8 hPa | 0 mm | - | 421 W/m² | - |
| 1778366745 | 27.22° C | 30% | 1013.1 hPa | 0 mm | - | 517 W/m² | - |
* Rain latest hour (hover to see other rain measurements)
** Current wind speed in m/s (hover to see current wind gust speed)